Retour au catalogue

STARLINK-35159

ActifCommunicationsVLEO
NORAD 65461·PAYLOAD·🇺🇸 United States

Lancé Sep 3, 2025 depuis Cape Canaveral Space Force Station

Loading…

Prochains Passages (prochaines 24 heures)

TLE

FraisSource: CelesTrak SupGP

Époque: Sep 14, 2026, 21:11 UTC

1 65461C 25195D   26257.88312500 -.00030564  00000+0 -90315-3 0  2570
2 65461  53.1567  96.0110 0001270  87.5780  64.6738 15.34401370    16

Suivez STARLINK-35159 en temps réel avec AllMySat

Download on the App Store